www.pogodaiklimat.ru

Погода и климат >> Архив погоды >> Австралия >> Wyndham Aero


ПОГОДА в Wyndham Aero

  • Прогноз погоды в Wyndham Aero
  • Монитор погоды в Wyndham Aero
  • Климат города

АРХИВ ПОГОДЫ в Wyndham Aero

Время (UTC), дата Ветер
(напр.,м/с)
 
Видим.   Явления Облачность Т
(С)
Тd
(С)
f
(%)
Тe
(С)
Тes
(С)
Комфортность P
(гПа)
Po
(гПа)
Тmin
(С)
Tmax
(С)
R
(мм)
R24
(мм)
S
(см)
14 8.12 ЮВ 5 н/о н/о +29.3 +22.8 68 +39 +39 очень
душно
1007.0 1006.5
13 8.12 В 2 н/о н/о +30.3 +23.7 68 +41 +41 опасность
перегрева
1006.8 1006.3 +37.3
15 8.12 В 3 н/о н/о +28.9 +22.4 68 +38 +38 очень
душно
1006.8 1006.3
16 8.12 В 4 н/о н/о +28.7 +22.2 68 +37 +37 очень
душно
1006.6 1006.1
17 8.12 В 3 н/о н/о +28.4 +21.9 68 +37 +37 очень
душно
1006.2 1005.7
18 8.12 СВ 3 н/о н/о +27.6 +21.2 68 +35 +35 очень
душно
1005.6 1005.1
20 8.12 штиль 0 н/о н/о +27.7 +21.3 68 +35 +35 очень
душно
1006.2 1005.7
19 8.12 З 2 н/о н/о +27.9 +21.4 68 +36 +36 очень
душно
1005.8 1005.3
21 8.12 штиль 0 н/о н/о +27.5 +21.1 68 +35 +35 очень
душно
1007.0 1006.5
22 8.12 С 2 н/о н/о +29.3 +22.8 68 +39 +39 очень
душно
1007.9 1007.4
23 8.12 ЮЗ 2 н/о н/о +31.1 +24.5 68 +44 +44 опасность
перегрева
1008.7 1008.2
00 9.12 ЮЗ 2 н/о н/о +32.5 +25.6 67 +47 +47 опасность
перегрева
1008.8 1008.3
02 9.12 В 2 н/о н/о +35.3 +28.2 67 +57 +57 опасность
перегрева
1008.2 1007.7
01 9.12 В 3 н/о н/о +33.8 +26.8 67 +51 +51 опасность
перегрева
1008.6 1008.1 +27.5
03 9.12 В 3 н/о н/о +36.4 +29.3 67 +61 +61 опасность
перегрева
1007.5 1007.0
04 9.12 В 3 н/о н/о +37.1 +29.9 67 +63 +63 опасность
перегрева
1006.8 1006.3
05 9.12 СВ 3 н/о н/о +38.0 +30.8 67 +67 +67 опасность
перегрева
1006.2 1005.7
06 9.12 СВ 5 н/о н/о +38.0 +30.5 66 +66 +66 опасность
перегрева
1005.4 1004.9
08 9.12 СЗ 3 н/о н/о +36.4 +29.3 67 +61 +61 опасность
перегрева
1004.9 1004.4
07 9.12 С 5 н/о н/о +35.8 +28.7 67 +58 +58 опасность
перегрева
1005.2 1004.7
09 9.12 С 5 н/о н/о +34.5 +27.5 67 +54 +54 опасность
перегрева
1005.7 1005.2
10 9.12 С 3 н/о н/о +33.2 +26.2 67 +49 +49 опасность
перегрева
1006.7 1006.2
11 9.12 З 1 н/о н/о +32.7 +25.8 67 +48 +48 опасность
перегрева
1007.2 1006.7
12 9.12 З 2 н/о н/о +31.9 +25.0 67 +45 +45 опасность
перегрева
1007.8 1007.3
14 9.12 В 3 н/о н/о +30.3 +23.7 68 +41 +41 опасность
перегрева
1008.3 1007.8
13 9.12 СВ 2 н/о н/о +30.4 +23.8 68 +42 +42 опасность
перегрева
1008.0 1007.5 +39.4
15 9.12 В 3 н/о н/о +30.4 +23.8 68 +42 +42 опасность
перегрева
1008.2 1007.7
16 9.12 В 3 н/о н/о +29.2 +22.7 68 +39 +39 очень
душно
1007.6 1007.1
17 9.12 В 3 н/о н/о +28.7 +22.2 68 +37 +37 очень
душно
1007.1 1006.6
18 9.12 В 4 н/о н/о +28.9 +22.4 68 +38 +38 очень
душно
1007.0 1006.5
20 9.12 В 3 н/о н/о +28.7 +22.2 68 +37 +37 очень
душно
1008.6 1008.1
19 9.12 В 3 н/о н/о +28.3 +21.8 68 +36 +36 очень
душно
1007.7 1007.2
21 9.12 В 2 н/о н/о +28.4 +21.9 68 +37 +37 очень
душно
1009.7 1009.2
22 9.12 ЮВ 3 н/о н/о +29.3 +22.8 68 +39 +39 очень
душно
1010.2 1009.7
23 9.12 В 2 н/о н/о +30.8 +24.2 68 +43 +43 опасность
перегрева
1010.9 1010.4
00 10.12 З 2 н/о н/о +32.1 +25.4 68 +47 +47 опасность
перегрева
1011.1 1010.6
02 10.12 З 2 н/о н/о +33.7 +26.7 67 +51 +51 опасность
перегрева
1010.2 1009.7
01 10.12 З 2 н/о н/о +32.7 +25.8 67 +48 +48 опасность
перегрева
1010.8 1010.3 +28.3
03 10.12 З 2 н/о н/о +35.7 +28.6 67 +58 +58 опасность
перегрева
1009.3 1008.8
04 10.12 СВ 4 н/о н/о +37.0 +29.8 67 +63 +63 опасность
перегрева
1008.2 1007.7
05 10.12 В 5 н/о н/о +38.2 +30.7 66 +67 +67 опасность
перегрева
1007.3 1006.8
06 10.12 В 6 н/о н/о +38.9 +31.4 66 +70 +70 опасность
перегрева
1006.5 1006.0
08 10.12 В 6 н/о н/о +39.3 +31.8 66 +72 +72 опасность
перегрева
1006.1 1005.6
07 10.12 В 3 н/о н/о +38.8 +31.3 66 +70 +70 опасность
перегрева
1005.8 1005.3
09 10.12 С 5 н/о н/о +35.9 +28.8 67 +59 +59 опасность
перегрева
1006.6 1006.1
10 10.12 С 5 н/о н/о +34.0 +27.0 67 +52 +52 опасность
перегрева
1007.3 1006.8
11 10.12 С 6 н/о н/о +33.5 +26.5 67 +50 +50 опасность
перегрева
1008.1 1007.6
12 10.12 С 3 н/о н/о +33.3 +26.3 67 +50 +50 опасность
перегрева
1008.8 1008.3
14 10.12 ЮЗ 3 н/о н/о +28.1 +21.6 68 +36 +36 очень
душно
1009.5 1009.0
13 10.12 С 8 н/о туман местами н/о +26.9 +20.5 68 +33 +33 очень
душно
1009.4 1008.9 +39.7
15 10.12 ЮВ 1 н/о н/о +27.8 +21.3 68 +35 +35 очень
душно
1009.0 1008.5
16 10.12 штиль 0 н/о н/о +28.2 +21.7 68 +36 +36 очень
душно
1009.0 1008.5
17 10.12 С 2 н/о н/о +27.8 +21.3 68 +35 +35 очень
душно
1008.8 1008.3
18 10.12 Ю 2 н/о н/о +28.2 +21.7 68 +36 +36 очень
душно
1008.7 1008.2
20 10.12 СЗ 2 н/о н/о +27.5 +21.1 68 +35 +35 очень
душно
1009.4 1008.9
19 10.12 СЗ 2 н/о н/о +28.2 +21.7 68 +36 +36 очень
душно
1008.9 1008.4
21 10.12 С 2 н/о н/о +28.1 +21.6 68 +36 +36 очень
душно
1010.2 1009.7
22 10.12 штиль 0 н/о н/о +29.9 +23.3 68 +40 +40 очень
душно
1010.9 1010.4
23 10.12 З 2 н/о н/о +31.6 +25.0 68 +45 +45 опасность
перегрева
1011.1 1010.6
00 11.12 З 3 н/о н/о +33.4 +26.4 67 +50 +50 опасность
перегрева
1010.9 1010.4
02 11.12 СЗ 3 н/о н/о +36.0 +28.9 67 +59 +59 опасность
перегрева
1009.6 1009.1
01 11.12 З 3 н/о н/о +35.3 +28.2 67 +57 +57 опасность
перегрева
1010.5 1010.0 +25.8
03 11.12 З 3 н/о н/о +36.5 +29.4 67 +61 +61 опасность
перегрева
1008.5 1008.0
04 11.12 СВ 2 н/о н/о +37.6 +30.4 67 +65 +65 опасность
перегрева
1007.3 1006.8
05 11.12 В 2 н/о н/о +39.2 +31.7 66 +71 +71 опасность
перегрева
1006.5 1006.0
06 11.12 С 3 н/о н/о +39.3 +31.8 66 +72 +72 опасность
перегрева
1005.5 1005.0
08 11.12 СВ 4 н/о н/о +39.9 +32.3 66 +74 +74 опасность
перегрева
1004.9 1004.4
07 11.12 В 5 н/о н/о +40.2 +32.6 66 +76 +76 опасность
перегрева
1004.9 1004.4
09 11.12 С 5 н/о н/о +37.2 +30.0 67 +64 +64 опасность
перегрева
1005.7 1005.2
10 11.12 С 7 н/о н/о +34.4 +27.4 67 +53 +53 опасность
перегрева
1006.4 1005.9
11 11.12 С 7 н/о н/о +32.9 +25.9 67 +49 +49 опасность
перегрева
1007.3 1006.8
12 11.12 С 5 н/о н/о +32.3 +25.4 67 +47 +47 опасность
перегрева
1008.2 1007.7
14 11.12 СЗ 4 н/о н/о +31.8 +24.9 67 +45 +45 опасность
перегрева
1008.9 1008.4
13 11.12 С 2 н/о н/о +31.9 +25.0 67 +45 +45 опасность
перегрева
1008.9 1008.4 +40.8
15 11.12 СЗ 6 н/о н/о +31.4 +24.8 68 +45 +45 опасность
перегрева
1008.5 1008.0
16 11.12 СЗ 5 н/о н/о +30.5 +23.9 68 +42 +42 опасность
перегрева
1007.9 1007.4
17 11.12 З 4 н/о н/о +29.7 +23.2 68 +40 +40 очень
душно
1007.3 1006.8
18 11.12 З 4 н/о н/о +30.2 +23.6 68 +41 +41 опасность
перегрева
1007.2 1006.7
20 11.12 СЗ 3 н/о н/о +28.6 +22.1 68 +37 +37 очень
душно
1008.0 1007.5
19 11.12 СЗ 3 н/о н/о +28.9 +22.4 68 +38 +38 очень
душно
1007.4 1006.9
21 11.12 С 3 н/о н/о +27.9 +21.4 68 +36 +36 очень
душно
1008.6 1008.1
22 11.12 СЗ 3 н/о н/о +30.0 +23.4 68 +41 +41 опасность
перегрева
1009.4 1008.9
23 11.12 З 4 н/о н/о +31.9 +25.0 67 +45 +45 опасность
перегрева
1009.9 1009.4
00 12.12 СЗ 4 н/о н/о +33.4 +26.4 67 +50 +50 опасность
перегрева
1009.9 1009.4
02 12.12 З 3 н/о н/о +36.4 +29.3 67 +61 +61 опасность
перегрева
1008.6 1008.1
01 12.12 СЗ 4 н/о н/о +34.9 +27.8 67 +55 +55 опасность
перегрева
1009.4 1008.9 +27.8
03 12.12 ЮЗ 2 н/о н/о +37.0 +29.8 67 +63 +63 опасность
перегрева
1007.6 1007.1
04 12.12 СВ 2 н/о н/о +38.3 +30.8 66 +67 +67 опасность
перегрева
1006.5 1006.0
05 12.12 В 3 н/о н/о +40.2 +32.6 66 +76 +76 опасность
перегрева
1005.4 1004.9
06 12.12 СВ 3 н/о н/о +41.0 +33.4 66 +79 +79 опасность
перегрева
1004.7 1004.2
08 12.12 С 2 н/о н/о +40.6 +33.0 66 +78 +78 опасность
перегрева
1003.6 1003.1
07 12.12 СВ 4 н/о н/о +40.9 +33.3 66 +79 +79 опасность
перегрева
1003.8 1003.3
09 12.12 СВ 3 н/о н/о +39.7 +32.1 66 +73 +73 опасность
перегрева
1004.0 1003.5
10 12.12 С 5 н/о н/о +36.0 +28.9 67 +59 +59 опасность
перегрева
1004.9 1004.4
11 12.12 С 4 н/о н/о +34.5 +27.5 67 +54 +54 опасность
перегрева
1004.9 1004.4
12 12.12 С 2 н/о н/о +33.9 +26.9 67 +52 +52 опасность
перегрева
1005.6 1005.1
14 12.12 СВ 1 н/о н/о +32.1 +25.2 67 +46 +46 опасность
перегрева
1006.5 1006.0
13 12.12 С 4 н/о н/о +33.3 +26.3 67 +50 +50 опасность
перегрева
1006.1 1005.6 +41.5
15 12.12 В 3 н/о н/о +30.6 +24.0 68 +42 +42 опасность
перегрева
1005.9 1005.4
16 12.12 ЮВ 4 н/о н/о +29.9 +23.3 68 +40 +40 очень
душно
1005.2 1004.7
17 12.12 В 3 н/о н/о +29.2 +22.7 68 +39 +39 очень
душно
1004.9 1004.4
18 12.12 СВ 2 н/о н/о +28.4 +21.9 68 +37 +37 очень
душно
1004.5 1004.0
20 12.12 В 2 н/о н/о +28.1 +21.6 68 +36 +36 очень
душно
1005.3 1004.8
19 12.12 В 2 н/о н/о +28.6 +22.1 68 +37 +37 очень
душно
1004.7 1004.2
21 12.12 штиль 0 н/о н/о +27.8 +21.3 68 +35 +35 очень
душно
1006.4 1005.9
22 12.12 штиль 0 н/о н/о +30.5 +23.9 68 +42 +42 опасность
перегрева
1007.3 1006.8
23 12.12 СЗ 2 н/о н/о +32.0 +25.1 67 +46 +46 опасность
перегрева
1007.6 1007.1
00 13.12 ЮЗ 3 н/о н/о +34.5 +27.5 67 +54 +54 опасность
перегрева
1007.6 1007.1
02 13.12 СВ 2 н/о н/о +37.0 +29.8 67 +63 +63 опасность
перегрева
1006.8 1006.3
01 13.12 СЗ 3 н/о н/о +35.7 +28.6 67 +58 +58 опасность
перегрева
1007.2 1006.7 +27.8
03 13.12 С 2 н/о н/о +38.6 +31.1 66 +69 +69 опасность
перегрева
1005.8 1005.3
04 13.12 С 3 н/о н/о +40.1 +32.5 66 +75 +75 опасность
перегрева
1004.7 1004.2
05 13.12 СЗ 4 н/о н/о +41.5 +33.8 66 +82 +82 опасность
перегрева
1003.6 1003.1
06 13.12 С 3 н/о н/о +41.3 +33.6 66 +81 +81 опасность
перегрева
1002.4 1001.9
08 13.12 С 9 н/о н/о +37.7 +30.5 67 +66 +66 опасность
перегрева
1001.9 1001.4
07 13.12 С 8 н/о н/о +39.3 +31.8 66 +72 +72 опасность
перегрева
1001.8 1001.3
09 13.12 С 11 н/о н/о +34.6 +27.6 67 +54 +54 опасность
перегрева
1002.6 1002.1
10 13.12 Ю 7 н/о н/о +34.1 +27.1 67 +52 +52 опасность
перегрева
1005.2 1004.7
11 13.12 СЗ 7 н/о н/о +30.5 +23.9 68 +42 +42 опасность
перегрева
1004.9 1004.4
12 13.12 Ю 5 н/о н/о +30.2 +23.6 68 +41 +41 опасность
перегрева
1005.5 1005.0
14 13.12 С 2 н/о н/о +29.8 +23.3 68 +40 +40 очень
душно
1006.8 1006.3
13 13.12 ЮЗ 1 н/о н/о +30.3 +23.7 68 +41 +41 опасность
перегрева
1006.7 1006.2 +42.1
15 13.12 штиль 0 н/о н/о +29.8 +23.3 68 +40 +40 очень
душно
1006.3 1005.8
16 13.12 В 3 н/о н/о +29.4 +22.9 68 +39 +39 очень
душно
1005.8 1005.3
17 13.12 штиль 0 н/о н/о +29.9 +23.3 68 +40 +40 очень
душно
1005.5 1005.0
18 13.12 СВ 1 н/о н/о +30.3 +23.7 68 +41 +41 опасность
перегрева
1005.3 1004.8
20 13.12 С 1 н/о н/о +28.8 +22.3 68 +38 +38 очень
душно
1006.4 1005.9
19 13.12 З 4 н/о н/о +30.8 +24.2 68 +43 +43 опасность
перегрева
1005.9 1005.4
21 13.12 З 3 н/о н/о +29.2 +22.7 68 +39 +39 очень
душно
1006.5 1006.0
22 13.12 СЗ 4 н/о н/о +30.0 +23.4 68 +41 +41 опасность
перегрева
1007.8 1007.3
23 13.12 С 3 н/о н/о +31.2 +24.6 68 +44 +44 опасность
перегрева
1008.3 1007.8
00 14.12 С 3 н/о н/о +33.1 +26.1 67 +49 +49 опасность
перегрева
1008.0 1007.5
02 14.12 СЗ 4 н/о н/о +35.5 +28.4 67 +57 +57 опасность
перегрева
1006.4 1005.9
01 14.12 СЗ 4 н/о н/о +34.4 +27.4 67 +53 +53 опасность
перегрева
1007.8 1007.3 +28.8
03 14.12 З 4 н/о н/о +36.6 +29.5 67 +61 +61 опасность
перегрева
1005.6 1005.1
04 14.12 З 4 н/о н/о +38.1 +30.9 67 +68 +68 опасность
перегрева
1004.5 1004.0
05 14.12 СЗ 3 н/о н/о +38.8 +31.3 66 +70 +70 опасность
перегрева
1003.4 1002.9
06 14.12 З 4 н/о н/о +39.7 +32.1 66 +73 +73 опасность
перегрева
1002.7 1002.2
08 14.12 С 7 н/о н/о +37.8 +30.3 66 +65 +65 опасность
перегрева
1001.7 1001.2
07 14.12 С 4 н/о н/о +40.1 +32.5 66 +75 +75 опасность
перегрева
1001.9 1001.4
09 14.12 С 9 н/о н/о +34.8 +27.8 67 +55 +55 опасность
перегрева
1002.4 1001.9
10 14.12 С 8 н/о н/о +33.1 +26.1 67 +49 +49 опасность
перегрева
1002.8 1002.3
11 14.12 С 9 н/о н/о +32.1 +25.2 67 +46 +46 опасность
перегрева
1003.4 1002.9
12 14.12 С 10 н/о н/о +31.7 +25.1 68 +45 +45 опасность
перегрева
1004.3 1003.8
14 14.12 СВ 5 н/о н/о +31.4 +24.8 68 +45 +45 опасность
перегрева
1005.9 1005.4
13 14.12 С 9 н/о н/о +31.5 +24.9 68 +45 +45 опасность
перегрева
1005.2 1004.7 +40.7
15 14.12 В 9 н/о н/о +30.8 +24.2 68 +43 +43 опасность
перегрева
1005.9 1005.4
16 14.12 С 4 н/о туман н/о +21.8 +15.9 69 +25 +25 комфорт 1008.4 1007.9
17 14.12 ЮЗ 7 н/о н/о +22.8 +16.8 69 +28 +28 душно 1008.9 1008.4
18 14.12 ЮВ 3 н/о н/о +23.7 +17.7 69 +28 +28 душно 1006.7 1006.2
20 14.12 СВ 1 н/о н/о +24.6 +18.5 69 +29 +29 душно 1008.1 1007.6
19 14.12 ЮВ 4 н/о туман местами н/о +24.9 +18.8 69 +30 +30 душно 1006.8 1006.3
21 14.12 З 2 н/о н/о +25.0 +18.9 69 +30 +30 душно 1007.9 1007.4
22 14.12 СЗ 3 н/о {туман} н/о +25.3 +19.2 69 +30 +30 душно 1008.6 1008.1
23 14.12 Ю 2 н/о н/о +25.5 +19.2 68 +31 +31 очень
душно
1008.7 1008.2
00 15.12 З 2 н/о н/о +26.3 +19.9 68 +32 +32 очень
душно
1009.3 1008.8
02 15.12 ЮВ 3 н/о н/о +27.7 +21.3 68 +35 +35 очень
душно
1009.3 1008.8
01 15.12 ЮВ 4 н/о {туман} н/о +26.7 +20.3 68 +33 +33 очень
душно
1009.5 1009.0 +21.1
03 15.12 ЮВ 2 н/о н/о +28.9 +22.4 68 +38 +38 очень
душно
1008.6 1008.1
04 15.12 С 1 н/о н/о +29.7 +23.2 68 +40 +40 очень
душно
1007.4 1006.9
05 15.12 ЮЗ 2 н/о н/о +30.2 +23.6 68 +41 +41 опасность
перегрева
1006.4 1005.9
06 15.12 З 3 н/о н/о +30.4 +23.8 68 +42 +42 опасность
перегрева
1005.6 1005.1
08 15.12 СЗ 2 н/о н/о +31.7 +25.1 68 +45 +45 опасность
перегрева
1005.1 1004.6
07 15.12 СЗ 2 н/о н/о +30.8 +24.2 68 +43 +43 опасность
перегрева
1005.2 1004.7
09 15.12 З 2 н/о н/о +31.9 +25.2 68 +46 +46 опасность
перегрева
1005.0 1004.5
10 15.12 СЗ 2 н/о н/о +29.8 +23.3 68 +40 +40 очень
душно
1005.6 1005.1
11 15.12 С 2 н/о н/о +28.6 +22.1 68 +37 +37 очень
душно
1006.1 1005.6
12 15.12 С 3 н/о н/о +27.9 +21.4 68 +36 +36 очень
душно
1006.4 1005.9
13 15.12 штиль 0 н/о н/о +27.7 +21.3 68 +35 +35 очень
душно
1007.5 1007.0 +32.7

 

Местоположение метеостанции Wyndham Aero (Западная Австралия, Австралия): широта -15.50 долгота 128.15 высота над уровнем моря 4 м.

В архиве по умолчанию представлена погода в Wyndham Aero за последнюю неделю. Архивные данные за месяц целиком и за предыдущие месяцы, начиная с января 2011 года, Вы можете получить, выбрав интересующий диапазон дат из раскрывающегося списка и нажав кнопку "Ввод!".

Внимание! Время в таблицах - всемирное. Для получения местного времени необходимо прибавить поправку, которая в Wyndham Aero равна 8 ч.

Смотрите также архив погоды в соседних городах и на ближайших метеорологических станциях:

Погода в Kununurra (Западная Австралия, Австралия) (68 км)
Погода в Argyle Aero (Западная Австралия, Австралия) (130 км)
Погода в Port Keats Aero (Северная территория, Австралия) (203 км)
Погода в Kalumburu (Западная Австралия, Австралия) (209 км)
Погода в Truscott (Западная Австралия, Австралия) (247 км)
Погода в Troughton Island (Западная Австралия, Австралия) (290 км)
Погода в Manbulloo Csiro (Северная территория, Австралия) (291 км)
Погода в Halls Creek Airport (Западная Австралия, Австралия) (308 км)
Погода в Victoria River Downs (Северная территория, Австралия) (323 км)
Погода в Cape Don Lighthouse (Северная территория, Австралия) (375 км)

Пояснения к столбцам:

Ветер - указаны скорость ветра в м/с - средняя за 10 мин, порывы в срок и между сроками (в фигурных скобках) и направление, откуда дует ветер: С - северный, СВ - северо-восточный, В - восточный, ЮВ - юго-восточный, Ю - южный, ЮЗ - юго-западный, З - западный, СЗ - северо-западный.
Видимость - горизонтальная дальность видимости в метрах или километрах. При видимости от 1 до 10 км при отсутствии осадков обычно наблюдается дымка, при ухудшении видимости до 1 км и менее - туман. В сухую погоду видимость может ухудшаться дымом, пылью или мглою.
Явления - указаны атмосферные явления, наблюдавшиеся в срок или в последний час перед сроком; фигурными скобками обозначены явления, наблюдавшиеся между сроками (за 1-3 часа до срока); квадратными скобками обозначены град или гололедные отложения с указанием их диаметра в мм.
Облачность - указаны через наклонную черту общая и нижняя облачность в баллах и высота нижней границы облаков в метрах; квадратными скобками обозначены формы облаков: Ci - перистые, Cs - перисто-слоистые, Cc - перисто-кучевые, Ac - высококучевые, As - высокослоистые, Sc - слоисто-кучевые, Ns - слоисто-дождевые, Cu - кучевые, Cb - кучево-дождевые. Подробнее классификацию облаков см. в Атласе облаков (PDF).
T - Температура воздуха - температура, измеренная на высоте 2 м над землей.
Td - Температура точки росы - температура, при понижении до которой содержащийся в воздухе водяной пар достигнет насыщения.
f - Относительная влажность воздуха - влажноcть воздуха, измеренная на высоте 2 м над землей.
Te - Эффективная температура - температура, которую ощущает одетый по сезону человек в тени. Характеристика душности погоды. При расчете учитывается влияние влажности воздуха и скорости ветра на теплоощущения человека.
Tes - Эффективная температура на солнце - температура, которую ощущает человек, с поправкой на солнечный нагрев. Характеристика знойности погоды. Зависит от высоты солнца над горизонтом, облачности и скорости ветра. Ночью, в пасмурную погоду, а также при ветре 12 м/с и более поправка равна нулю.
P - Атмосферное давление - приведенное к уровню моря атмосферное давление.
Po - Атмосферное давление - измеренное на уровне метеостанции атмосферное давление.
Tmin - Минимальная температура - минимум температуры воздуха на высоте 2 м над землей.
Tmax - Максимальная температура - максимум температуры воздуха на высоте 2 м над землей.
R - Количество осадков - Количество выпавших осадков за период времени, мм. При наведении курсора мыши на число - период времени, за который выпало указанное количество осадков.
R24 - Количество осадков - Количество выпавших осадков за 24 часа, мм.
S - Снежный покров - Высота снежного покрова, см. При наведении курсора мыши на число - состояние снежного покрова и степень покрытия местности в баллах.